| time (UTC) | temp C | wind direction | speed KPH | gust KPH | rain 1hr cm | rain 24hr cm | rain mn cm | humidity % | barometer mb |
| 20260505153021 | 27 | 201 | 17.7 | 37.0 | 0.00 | 0.00 | 0.00 | 80 | 1010.7 |
| 20260505152511 | 27 | 165 | 17.7 | 29.0 | 0.00 | 0.00 | 0.00 | 80 | 1010.8 |
| 20260505152011 | 27 | 188 | 17.7 | 27.4 | 0.00 | 0.00 | 0.00 | 80 | 1010.8 |
| 20260505151505 | 27 | 203 | 14.5 | 27.4 | 0.00 | 0.00 | 0.00 | 80 | 1010.8 |
| 20260505151003 | 27 | 199 | 12.9 | 27.4 | 0.00 | 0.00 | 0.00 | 80 | 1010.7 |
| 20260505150503 | 27 | 200 | 12.9 | 25.7 | 0.00 | 0.00 | 0.00 | 80 | 1010.7 |
| 20260505140507 | 25 | 216 | 14.5 | 29.0 | 0.00 | 0.00 | 0.00 | 85 | 1010.7 |
| 20260505125002 | 24 | 200 | 14.5 | 29.0 | 0.00 | 0.00 | 0.00 | 86 | 1010.0 |
| 20260505124512 | 24 | 192 | 14.5 | 29.0 | 0.00 | 0.00 | 0.00 | 86 | 1010.1 |
| 20260505124004 | 24 | 178 | 14.5 | 29.0 | 0.00 | 0.00 | 0.00 | 86 | 1010.3 |
| 20260505123502 | 24 | 192 | 12.9 | 29.0 | 0.00 | 0.00 | 0.00 | 86 | 1010.4 |
| 20260505123012 | 24 | 194 | 12.9 | 29.0 | 0.00 | 0.00 | 0.00 | 86 | 1010.3 |
| 20260505122503 | 24 | 210 | 12.9 | 25.7 | 0.00 | 0.00 | 0.00 | 86 | 1010.4 |
| 20260505122003 | 24 | 193 | 11.3 | 29.0 | 0.00 | 0.00 | 0.00 | 86 | 1010.3 |
| 20260505121506 | 24 | 213 | 12.9 | 29.0 | 0.00 | 0.00 | 0.00 | 86 | 1010.3 |
| 20260505121004 | 24 | 174 | 12.9 | 32.2 | 0.00 | 0.00 | 0.00 | 86 | 1010.2 |
| 20260505120504 | 24 | 184 | 16.1 | 32.2 | 0.00 | 0.00 | 0.00 | 86 | 1010.1 |
| 20260505120015 | 24 | 217 | 14.5 | 29.0 | 0.00 | 0.00 | 0.00 | 86 | 1010.2 |
| 20260505115502 | 24 | 180 | 16.1 | 30.6 | 0.00 | 0.00 | 0.00 | 86 | 1010.0 |
| 20260505115003 | 24 | 184 | 16.1 | 30.6 | 0.00 | 0.00 | 0.00 | 86 | 1010.0 |
| 20260505114508 | 24 | 184 | 17.7 | 29.0 | 0.00 | 0.00 | 0.00 | 86 | 1010.1 |
| 20260505114002 | 24 | 230 | 16.1 | 29.0 | 0.00 | 0.00 | 0.00 | 86 | 1010.1 |
| 20260505113503 | 24 | 188 | 11.3 | 27.4 | 0.00 | 0.00 | 0.00 | 86 | 1010.3 |
| 20260505113007 | 24 | 228 | 9.7 | 27.4 | 0.00 | 0.00 | 0.00 | 86 | 1010.5 |
| 20260505112503 | 24 | 182 | 12.9 | 24.1 | 0.00 | 0.00 | 0.00 | 86 | 1010.3 |
| 20260505112003 | 24 | 190 | 12.9 | 24.1 | 0.00 | 0.00 | 0.00 | 86 | 1010.2 |
| 20260505111516 | 24 | 202 | 11.3 | 24.1 | 0.00 | 0.00 | 0.00 | 86 | 1010.0 |
| 20260505111004 | 23 | 210 | 11.3 | 29.0 | 0.00 | 0.00 | 0.00 | 86 | 1009.8 |
| 20260505110503 | 23 | 220 | 14.5 | 29.0 | 0.00 | 0.00 | 0.00 | 86 | 1009.8 |
| 20260505102004 | 23 | 192 | 12.9 | 27.4 | 0.00 | 0.00 | 0.00 | 85 | 1010.0 |
| 20260505101522 | 23 | 201 | 16.1 | 27.4 | 0.00 | 0.00 | 0.00 | 85 | 1009.9 |
| 20260505101004 | 23 | 196 | 11.3 | 29.0 | 0.00 | 0.00 | 0.00 | 85 | 1009.9 |
| 20260505100504 | 23 | 194 | 17.7 | 29.0 | 0.00 | 0.00 | 0.00 | 85 | 1010.0 |
| 20260505100021 | 23 | 194 | 14.5 | 29.0 | 0.00 | 0.00 | 0.00 | 85 | 1010.1 |
| 20260505095504 | 23 | 200 | 12.9 | 25.7 | 0.00 | 0.00 | 0.00 | 85 | 1010.2 |
| 20260505095004 | 23 | 194 | 14.5 | 25.7 | 0.00 | 0.00 | 0.00 | 85 | 1010.1 |
| 20260505094508 | 23 | 197 | 16.1 | 25.7 | 0.00 | 0.00 | 0.00 | 85 | 1010.1 |
| 20260505094005 | 23 | 196 | 11.3 | 27.4 | 0.00 | 0.00 | 0.00 | 84 | 1010.2 |
| 20260505093503 | 23 | 205 | 16.1 | 33.8 | 0.00 | 0.00 | 0.00 | 84 | 1010.1 |
| 20260505093010 | 23 | 207 | 14.5 | 33.8 | 0.00 | 0.00 | 0.00 | 84 | 1010.1 |
| 20260505092503 | 23 | 185 | 14.5 | 32.2 | 0.00 | 0.00 | 0.00 | 84 | 1010.0 |
| 20260505092003 | 23 | 172 | 16.1 | 29.0 | 0.00 | 0.00 | 0.00 | 84 | 1010.1 |
| 20260505091508 | 23 | 177 | 16.1 | 33.8 | 0.00 | 0.00 | 0.00 | 84 | 1010.1 |
| 20260505091005 | 23 | 201 | 14.5 | 33.8 | 0.00 | 0.00 | 0.00 | 84 | 1010.1 |
| 20260505090503 | 23 | 188 | 17.7 | 27.4 | 0.00 | 0.00 | 0.00 | 84 | 1010.1 |
| 20260505090012 | 23 | 173 | 14.5 | 27.4 | 0.00 | 0.00 | 0.00 | 84 | 1010.0 |
| 20260505085503 | 23 | 196 | 14.5 | 27.4 | 0.00 | 0.00 | 0.00 | 84 | 1010.0 |
| 20260505085004 | 23 | 212 | 16.1 | 33.8 | 0.00 | 0.00 | 0.00 | 84 | 1010.0 |
| 20260505084512 | 23 | 207 | 17.7 | 35.4 | 0.00 | 0.00 | 0.00 | 83 | 1010.0 |
| 20260505084003 | 23 | 200 | 19.3 | 35.4 | 0.00 | 0.00 | 0.00 | 83 | 1010.1 |
| 20260505083504 | 23 | 214 | 17.7 | 35.4 | 0.00 | 0.00 | 0.00 | 83 | 1010.3 |
| 20260505083013 | 23 | 214 | 14.5 | 29.0 | 0.00 | 0.00 | 0.00 | 83 | 1010.3 |
| 20260505082505 | 24 | 205 | 16.1 | 30.6 | 0.00 | 0.00 | 0.00 | 83 | 1010.3 |
| 20260505082003 | 23 | 205 | 14.5 | 30.6 | 0.00 | 0.00 | 0.00 | 83 | 1010.4 |
| 20260505081514 | 23 | 205 | 12.9 | 29.0 | 0.00 | 0.00 | 0.00 | 83 | 1010.4 |
| 20260505081003 | 23 | 177 | 14.5 | 29.0 | 0.00 | 0.00 | 0.00 | 83 | 1010.4 |
| 20260505080503 | 23 | 209 | 16.1 | 32.2 | 0.00 | 0.00 | 0.00 | 83 | 1010.4 |
| 20260505080013 | 23 | 178 | 14.5 | 32.2 | 0.00 | 0.00 | 0.00 | 83 | 1010.5 |
| 20260505075502 | 23 | 171 | 16.1 | 29.0 | 0.00 | 0.00 | 0.00 | 83 | 1010.5 |
| 20260505075008 | 23 | 190 | 17.7 | 32.2 | 0.00 | 0.00 | 0.00 | 82 | 1010.5 |
| 20260505074512 | 23 | 183 | 16.1 | 32.2 | 0.00 | 0.00 | 0.00 | 82 | 1010.5 |
| 20260505074009 | 23 | 210 | 17.7 | 30.6 | 0.00 | 0.00 | 0.00 | 82 | 1010.5 |
| 20260505073504 | 23 | 197 | 19.3 | 30.6 | 0.00 | 0.00 | 0.00 | 82 | 1010.5 |
| 20260505073031 | 23 | 208 | 17.7 | 30.6 | 0.00 | 0.00 | 0.00 | 82 | 1010.6 |
| 20260505072507 | 23 | 196 | 16.1 | 32.2 | 0.00 | 0.00 | 0.00 | 81 | 1010.7 |
| 20260505072003 | 23 | 195 | 17.7 | 32.2 | 0.00 | 0.00 | 0.00 | 81 | 1010.6 |
| 20260505071504 | 23 | 225 | 17.7 | 32.2 | 0.00 | 0.00 | 0.00 | 81 | 1010.8 |
| 20260505071003 | 23 | 179 | 17.7 | 32.2 | 0.00 | 0.00 | 0.00 | 81 | 1011.0 |
| 20260505070503 | 23 | 188 | 19.3 | 29.0 | 0.00 | 0.00 | 0.00 | 81 | 1011.2 |
| 20260505070013 | 23 | 237 | 16.1 | 30.6 | 0.00 | 0.00 | 0.00 | 81 | 1011.2 |
| 20260505065503 | 23 | 198 | 16.1 | 30.6 | 0.00 | 0.00 | 0.00 | 81 | 1011.2 |
| 20260505065006 | 23 | 198 | 16.1 | 33.8 | 0.00 | 0.00 | 0.00 | 80 | 1011.2 |
| 20260505064518 | 23 | 182 | 19.3 | 33.8 | 0.00 | 0.00 | 0.00 | 81 | 1011.5 |
| 20260505064005 | 23 | 225 | 16.1 | 32.2 | 0.00 | 0.00 | 0.00 | 81 | 1011.6 |
| 20260505063506 | 23 | 228 | 20.9 | 30.6 | 0.00 | 0.00 | 0.00 | 81 | 1011.4 |
| 20260505063004 | 23 | 210 | 17.7 | 30.6 | 0.00 | 0.00 | 0.00 | 80 | 1011.3 |
| 20260505062503 | 23 | 187 | 17.7 | 35.4 | 0.00 | 0.00 | 0.00 | 80 | 1011.3 |
| 20260505062006 | 23 | 203 | 14.5 | 35.4 | 0.00 | 0.00 | 0.00 | 80 | 1011.3 |
| 20260505061514 | 23 | 180 | 16.1 | 35.4 | 0.00 | 0.00 | 0.00 | 79 | 1011.3 |
| 20260505061003 | 23 | 179 | 16.1 | 33.8 | 0.00 | 0.00 | 0.00 | 79 | 1011.5 |
| 20260505060503 | 23 | 196 | 12.9 | 27.4 | 0.00 | 0.00 | 0.00 | 79 | 1011.8 |
| 20260505060010 | 23 | 164 | 16.1 | 32.2 | 0.00 | 0.00 | 0.00 | 79 | 1011.9 |
| 20260505055503 | 23 | 216 | 17.7 | 32.2 | 0.00 | 0.00 | 0.00 | 79 | 1011.9 |
| 20260505055003 | 23 | 200 | 14.5 | 30.6 | 0.00 | 0.00 | 0.00 | 79 | 1011.5 |
| 20260505054511 | 23 | 194 | 16.1 | 37.0 | 0.00 | 0.00 | 0.00 | 79 | 1011.4 |
| 20260505054002 | 23 | 159 | 16.1 | 37.0 | 0.00 | 0.00 | 0.00 | 79 | 1011.4 |
| 20260505053507 | 23 | 200 | 14.5 | 37.0 | 0.00 | 0.00 | 0.00 | 79 | 1011.5 |
| 20260505053030 | 23 | 180 | 17.7 | 37.0 | 0.00 | 0.00 | 0.00 | 78 | 1011.6 |
| 20260505052507 | 23 | 188 | 17.7 | 33.8 | 0.00 | 0.00 | 0.00 | 79 | 1012.0 |
| 20260505052009 | 23 | 194 | 17.7 | 33.8 | 0.00 | 0.00 | 0.00 | 79 | 1011.9 |
| 20260505051511 | 23 | 186 | 19.3 | 33.8 | 0.00 | 0.00 | 0.00 | 78 | 1011.9 |
| 20260505051003 | 23 | 190 | 17.7 | 35.4 | 0.00 | 0.00 | 0.00 | 78 | 1011.8 |
| 20260505050503 | 23 | 207 | 16.1 | 35.4 | 0.00 | 0.00 | 0.00 | 78 | 1011.8 |
| 20260505041013 | 23 | 190 | 14.5 | 30.6 | 0.00 | 0.00 | 0.00 | 77 | 1012.5 |
| 20260505040510 | 23 | 207 | 12.9 | 30.6 | 0.00 | 0.00 | 0.00 | 77 | 1012.6 |
| 20260505040020 | 23 | 203 | 12.9 | 29.0 | 0.00 | 0.00 | 0.00 | 77 | 1012.6 |
| 20260505035502 | 23 | 169 | 14.5 | 30.6 | 0.00 | 0.00 | 0.00 | 76 | 1012.5 |
| 20260505035003 | 23 | 164 | 14.5 | 30.6 | 0.00 | 0.00 | 0.00 | 76 | 1012.4 |
| 20260505034507 | 23 | 200 | 16.1 | 30.6 | 0.00 | 0.00 | 0.00 | 76 | 1012.5 |
| 20260505034004 | 23 | 196 | 11.3 | 27.4 | 0.00 | 0.00 | 0.00 | 76 | 1012.6 |
| 20260505033505 | 23 | 188 | 12.9 | 29.0 | 0.00 | 0.00 | 0.00 | 76 | 1012.6 |
| 20260505033012 | 23 | 220 | 14.5 | 29.0 | 0.00 | 0.00 | 0.00 | 75 | 1012.5 |
| 20260505032505 | 23 | 189 | 11.3 | 30.6 | 0.00 | 0.00 | 0.00 | 76 | 1012.7 |
| 20260505032005 | 23 | 187 | 16.1 | 30.6 | 0.00 | 0.00 | 0.00 | 75 | 1012.5 |
| 20260505031515 | 23 | 197 | 14.5 | 25.7 | 0.00 | 0.00 | 0.00 | 75 | 1012.5 |
| 20260505031009 | 23 | 204 | 14.5 | 30.6 | 0.00 | 0.00 | 0.00 | 75 | 1012.6 |
| 20260505030507 | 23 | 204 | 16.1 | 30.6 | 0.00 | 0.00 | 0.00 | 75 | 1012.7 |
| 20260505030020 | 23 | 168 | 16.1 | 25.7 | 0.00 | 0.00 | 0.00 | 75 | 1012.6 |
| 20260505025507 | 23 | 180 | 14.5 | 25.7 | 0.00 | 0.00 | 0.00 | 75 | 1012.7 |
| 20260505025006 | 23 | 188 | 11.3 | 25.7 | 0.00 | 0.00 | 0.00 | 75 | 1012.7 |
| 20260505024521 | 23 | 172 | 14.5 | 30.6 | 0.00 | 0.00 | 0.00 | 74 | 1012.6 |
| 20260505024002 | 23 | 175 | 12.9 | 30.6 | 0.00 | 0.00 | 0.00 | 75 | 1012.5 |
| 20260505023502 | 23 | 175 | 14.5 | 27.4 | 0.00 | 0.00 | 0.00 | 74 | 1012.6 |
| 20260505023014 | 23 | 175 | 12.9 | 25.7 | 0.00 | 0.00 | 0.00 | 75 | 1012.6 |
| 20260505022504 | 23 | 211 | 14.5 | 29.0 | 0.00 | 0.00 | 0.00 | 75 | 1012.6 |
| 20260505022004 | 23 | 180 | 11.3 | 29.0 | 0.00 | 0.00 | 0.00 | 74 | 1012.6 |
| 20260505021514 | 24 | 188 | 11.3 | 27.4 | 0.00 | 0.00 | 0.00 | 74 | 1012.4 |
| 20260505021005 | 24 | 196 | 11.3 | 29.0 | 0.00 | 0.00 | 0.00 | 74 | 1012.3 |
| 20260505020503 | 23 | 170 | 12.9 | 29.0 | 0.00 | 0.00 | 0.00 | 74 | 1012.3 |
| 20260505020019 | 24 | 196 | 11.3 | 25.7 | 0.00 | 0.00 | 0.00 | 73 | 1012.3 |
| 20260505015505 | 24 | 174 | 12.9 | 25.7 | 0.00 | 0.00 | 0.00 | 72 | 1012.3 |
| 20260505015007 | 23 | 195 | 14.5 | 27.4 | 0.00 | 0.00 | 0.00 | 72 | 1012.3 |
| 20260505014521 | 24 | 190 | 11.3 | 27.4 | 0.00 | 0.00 | 0.00 | 72 | 1012.2 |
| 20260505014006 | 24 | 171 | 12.9 | 25.7 | 0.00 | 0.00 | 0.00 | 73 | 1012.4 |
| 20260505013506 | 23 | 171 | 12.9 | 20.9 | 0.00 | 0.00 | 0.00 | 72 | 1012.4 |
| 20260505013028 | 24 | 180 | 12.9 | 22.5 | 0.00 | 0.00 | 0.00 | 72 | 1012.4 |
| 20260505012503 | 24 | 190 | 11.3 | 20.9 | 0.00 | 0.00 | 0.00 | 72 | 1012.3 |
| 20260505012003 | 24 | 185 | 9.7 | 22.5 | 0.00 | 0.00 | 0.00 | 73 | 1012.1 |
| 20260505011515 | 24 | 180 | 9.7 | 22.5 | 0.00 | 0.00 | 0.00 | 72 | 1012.0 |
| 20260505011008 | 24 | 176 | 11.3 | 22.5 | 0.00 | 0.00 | 0.00 | 72 | 1011.9 |
| 20260505010505 | 24 | 169 | 11.3 | 24.1 | 0.00 | 0.00 | 0.00 | 72 | 1012.1 |
| 20260505010029 | 24 | 198 | 11.3 | 27.4 | 0.00 | 0.00 | 0.00 | 71 | 1012.1 |
| 20260505005504 | 24 | 191 | 11.3 | 27.4 | 0.00 | 0.00 | 0.00 | 71 | 1011.9 |
| 20260505005004 | 24 | 187 | 8.0 | 20.9 | 0.00 | 0.00 | 0.00 | 70 | 1011.8 |
| 20260505004520 | 24 | 186 | 11.3 | 29.0 | 0.00 | 0.00 | 0.00 | 70 | 1011.7 |
| 20260505004006 | 24 | 160 | 12.9 | 29.0 | 0.00 | 0.00 | 0.00 | 70 | 1011.8 |
| 20260505003508 | 24 | 211 | 12.9 | 24.1 | 0.00 | 0.00 | 0.00 | 70 | 1012.1 |
| 20260505003025 | 24 | 192 | 11.3 | 24.1 | 0.00 | 0.00 | 0.00 | 69 | 1011.9 |
| 20260505002510 | 25 | 200 | 9.7 | 20.9 | 0.00 | 0.00 | 0.00 | 69 | 1011.9 |
| 20260505002010 | 25 | 186 | 9.7 | 20.9 | 0.00 | 0.00 | 0.00 | 69 | 1012.1 |
| 20260505001527 | 25 | 164 | 8.0 | 20.9 | 0.00 | 0.00 | 0.00 | 69 | 1012.3 |
| 20260505001009 | 25 | 187 | 11.3 | 20.9 | 0.00 | 0.00 | 0.00 | 68 | 1012.4 |
| 20260505000504 | 25 | 184 | 12.9 | 17.7 | 0.00 | 0.00 | 0.00 | 68 | 1012.1 |
| 20260505000025 | 25 | 184 | 9.7 | 22.5 | 0.00 | 0.00 | 0.00 | 67 | 1012.1 |
| 20260504235506 | 25 | 201 | 11.3 | 22.5 | 0.00 | 0.00 | 0.00 | 67 | 1012.4 |
| 20260504235007 | 25 | 185 | 9.7 | 24.1 | 0.00 | 0.00 | 0.00 | 67 | 1012.6 |
| 20260504234504 | 25 | 200 | 12.9 | 24.1 | 0.00 | 0.00 | 0.00 | 66 | 1012.6 |
| 20260504234004 | 25 | 205 | 11.3 | 25.7 | 0.00 | 0.00 | 0.00 | 65 | 1012.4 |
| 20260504233502 | 25 | 196 | 8.0 | 25.7 | 0.00 | 0.00 | 0.00 | 65 | 1012.7 |
| 20260504233003 | 25 | 174 | 9.7 | 24.1 | 0.00 | 0.00 | 0.00 | 65 | 1012.8 |
| 20260504232502 | 26 | 202 | 12.9 | 24.1 | 0.00 | 0.00 | 0.00 | 64 | 1012.9 |
| 20260504232003 | 25 | 169 | 11.3 | 24.1 | 0.00 | 0.00 | 0.00 | 64 | 1013.0 |
| 20260504231505 | 25 | 186 | 12.9 | 24.1 | 0.00 | 0.00 | 0.00 | 64 | 1013.0 |
| 20260504231002 | 26 | 184 | 11.3 | 27.4 | 0.00 | 0.00 | 0.00 | 64 | 1013.0 |
| 20260504230502 | 26 | 198 | 11.3 | 27.4 | 0.00 | 0.00 | 0.00 | 63 | 1013.1 |
| 20260504230013 | 26 | 189 | 8.0 | 25.7 | 0.00 | 0.00 | 0.00 | 62 | 1013.2 |
| 20260504225503 | 26 | 182 | 11.3 | 25.7 | 0.00 | 0.00 | 0.00 | 62 | 1013.0 |
| 20260504225002 | 26 | 180 | 11.3 | 24.1 | 0.00 | 0.00 | 0.00 | 62 | 1013.1 |
| 20260504224514 | 26 | 190 | 9.7 | 24.1 | 0.00 | 0.00 | 0.00 | 62 | 1013.2 |
| 20260504224006 | 26 | 211 | 11.3 | 22.5 | 0.00 | 0.00 | 0.00 | 62 | 1013.4 |
| 20260504223503 | 26 | 213 | 9.7 | 22.5 | 0.00 | 0.00 | 0.00 | 63 | 1013.5 |
| 20260504223003 | 26 | 191 | 12.9 | 22.5 | 0.00 | 0.00 | 0.00 | 62 | 1013.5 |
| 20260504222502 | 26 | 168 | 11.3 | 22.5 | 0.00 | 0.00 | 0.00 | 62 | 1013.5 |
| 20260504222002 | 26 | 182 | 11.3 | 22.5 | 0.00 | 0.00 | 0.00 | 63 | 1013.5 |
| 20260504221519 | 26 | 164 | 9.7 | 20.9 | 0.00 | 0.00 | 0.00 | 63 | 1013.7 |
| 20260504221001 | 26 | 204 | 9.7 | 24.1 | 0.00 | 0.00 | 0.00 | 63 | 1013.7 |
| 20260504220502 | 26 | 183 | 9.7 | 24.1 | 0.00 | 0.00 | 0.00 | 62 | 1013.8 |
| 20260504220008 | 27 | 221 | 9.7 | 20.9 | 0.00 | 0.00 | 0.00 | 61 | 1013.6 |
| 20260504215502 | 27 | 215 | 8.0 | 20.9 | 0.00 | 0.00 | 0.00 | 61 | 1013.7 |
| 20260504215009 | 27 | 182 | 8.0 | 22.5 | 0.00 | 0.00 | 0.00 | 61 | 1013.8 |
| 20260504214513 | 27 | 197 | 11.3 | 22.5 | 0.00 | 0.00 | 0.00 | 60 | 1013.9 |
| 20260504214003 | 27 | 183 | 9.7 | 27.4 | 0.00 | 0.00 | 0.00 | 60 | 1013.9 |
| 20260504213503 | 27 | 200 | 14.5 | 27.4 | 0.00 | 0.00 | 0.00 | 60 | 1013.9 |
| 20260504213017 | 27 | 161 | 11.3 | 22.5 | 0.00 | 0.00 | 0.00 | 60 | 1013.9 |
| 20260504212508 | 27 | 169 | 11.3 | 22.5 | 0.00 | 0.00 | 0.00 | 59 | 1014.1 |
| 20260504212009 | 27 | 206 | 12.9 | 25.7 | 0.00 | 0.00 | 0.00 | 60 | 1014.1 |
| 20260504211503 | 27 | 200 | 11.3 | 25.7 | 0.00 | 0.00 | 0.00 | 59 | 1014.2 |
| 20260504211002 | 27 | 186 | 12.9 | 20.9 | 0.00 | 0.00 | 0.00 | 59 | 1014.2 |
| 20260504210504 | 27 | 200 | 9.7 | 24.1 | 0.00 | 0.00 | 0.00 | 59 | 1014.2 |
| 20260504210006 | 27 | 177 | 14.5 | 24.1 | 0.00 | 0.00 | 0.00 | 58 | 1014.4 |
| 20260504205503 | 27 | 194 | 12.9 | 24.1 | 0.00 | 0.00 | 0.00 | 59 | 1014.3 |
| 20260504205003 | 27 | 169 | 11.3 | 20.9 | 0.00 | 0.00 | 0.00 | 59 | 1014.4 |
| 20260504204511 | 27 | 171 | 11.3 | 20.9 | 0.00 | 0.00 | 0.00 | 58 | 1014.4 |
| 20260504204005 | 27 | 196 | 11.3 | 20.9 | 0.00 | 0.00 | 0.00 | 59 | 1014.5 |
| 20260504203503 | 27 | 153 | 11.3 | 24.1 | 0.00 | 0.00 | 0.00 | 58 | 1014.6 |
| 20260504203015 | 27 | 209 | 9.7 | 24.1 | 0.00 | 0.00 | 0.00 | 57 | 1014.7 |
| 20260504202508 | 27 | 207 | 9.7 | 22.5 | 0.00 | 0.00 | 0.00 | 58 | 1014.8 |
| 20260504202004 | 27 | 203 | 9.7 | 22.5 | 0.00 | 0.00 | 0.00 | 57 | 1014.8 |
| 20260504201520 | 27 | 202 | 12.9 | 22.5 | 0.00 | 0.00 | 0.00 | 57 | 1014.7 |
| 20260504201008 | 27 | 181 | 11.3 | 22.5 | 0.00 | 0.00 | 0.00 | 58 | 1014.7 |
| 20260504200511 | 27 | 201 | 11.3 | 22.5 | 0.00 | 0.00 | 0.00 | 57 | 1014.8 |
| 20260504200003 | 27 | 246 | 12.9 | 22.5 | 0.00 | 0.00 | 0.00 | 57 | 1015.0 |
| 20260504195504 | 27 | 204 | 11.3 | 22.5 | 0.00 | 0.00 | 0.00 | 57 | 1015.1 |
| 20260504195004 | 27 | 204 | 9.7 | 22.5 | 0.00 | 0.00 | 0.00 | 57 | 1015.3 |
| 20260504194506 | 27 | 187 | 14.5 | 20.9 | 0.00 | 0.00 | 0.00 | 56 | 1015.3 |
| 20260504194003 | 27 | 209 | 12.9 | 20.9 | 0.00 | 0.00 | 0.00 | 56 | 1015.2 |
| 20260504193503 | 27 | 173 | 9.7 | 22.5 | 0.00 | 0.00 | 0.00 | 57 | 1015.2 |
| 20260504193013 | 27 | 185 | 12.9 | 22.5 | 0.00 | 0.00 | 0.00 | 57 | 1015.3 |
| 20260504192503 | 27 | 202 | 12.9 | 22.5 | 0.00 | 0.00 | 0.00 | 57 | 1015.4 |
| 20260504192007 | 27 | 198 | 9.7 | 25.7 | 0.00 | 0.00 | 0.00 | 57 | 1015.4 |
| 20260504191527 | 27 | 186 | 14.5 | 25.7 | 0.00 | 0.00 | 0.00 | 57 | 1015.4 |
| 20260504191008 | 27 | 199 | 9.7 | 22.5 | 0.00 | 0.00 | 0.00 | 58 | 1015.5 |
| 20260504190506 | 27 | 236 | 9.7 | 22.5 | 0.00 | 0.00 | 0.00 | 58 | 1015.5 |
| 20260504190023 | 27 | 142 | 9.7 | 20.9 | 0.00 | 0.00 | 0.00 | 57 | 1015.4 |
| 20260504185507 | 27 | 194 | 12.9 | 25.7 | 0.00 | 0.00 | 0.00 | 57 | 1015.4 |
| 20260504185008 | 27 | 177 | 9.7 | 27.4 | 0.00 | 0.00 | 0.00 | 57 | 1015.6 |
| 20260504184503 | 27 | 219 | 14.5 | 27.4 | 0.00 | 0.00 | 0.00 | 56 | 1015.7 |
| 20260504184003 | 27 | 176 | 14.5 | 24.1 | 0.00 | 0.00 | 0.00 | 56 | 1015.8 |
| 20260504183504 | 27 | 219 | 11.3 | 22.5 | 0.00 | 0.00 | 0.00 | 56 | 1015.7 |
| 20260504183010 | 27 | 211 | 9.7 | 22.5 | 0.00 | 0.00 | 0.00 | 56 | 1015.7 |
| 20260504182503 | 27 | 194 | 9.7 | 20.9 | 0.00 | 0.00 | 0.00 | 57 | 1015.9 |
| 20260504182007 | 27 | 188 | 12.9 | 24.1 | 0.00 | 0.00 | 0.00 | 56 | 1015.9 |
| 20260504181517 | 27 | 220 | 12.9 | 24.1 | 0.00 | 0.00 | 0.00 | 56 | 1015.8 |
| 20260504181007 | 27 | 180 | 12.9 | 22.5 | 0.00 | 0.00 | 0.00 | 55 | 1015.9 |
| 20260504180507 | 27 | 220 | 12.9 | 25.7 | 0.00 | 0.00 | 0.00 | 55 | 1016.0 |
| 20260504180020 | 27 | 199 | 12.9 | 25.7 | 0.00 | 0.00 | 0.00 | 57 | 1016.1 |
| 20260504175507 | 27 | 210 | 9.7 | 25.7 | 0.00 | 0.00 | 0.00 | 58 | 1016.3 |
| 20260504175005 | 27 | 196 | 11.3 | 25.7 | 0.00 | 0.00 | 0.00 | 58 | 1016.3 |
| 20260504174523 | 27 | 187 | 14.5 | 24.1 | 0.00 | 0.00 | 0.00 | 57 | 1016.3 |
| 20260504174008 | 27 | 190 | 12.9 | 29.0 | 0.00 | 0.00 | 0.00 | 57 | 1016.4 |
| 20260504173509 | 27 | 163 | 14.5 | 29.0 | 0.00 | 0.00 | 0.00 | 56 | 1016.4 |
| 20260504173024 | 27 | 183 | 9.7 | 22.5 | 0.00 | 0.00 | 0.00 | 57 | 1016.6 |
| 20260504172503 | 27 | 205 | 11.3 | 27.4 | 0.00 | 0.00 | 0.00 | 57 | 1016.6 |
| 20260504172003 | 27 | 202 | 11.3 | 27.4 | 0.00 | 0.00 | 0.00 | 58 | 1016.6 |
| 20260504171510 | 27 | 198 | 11.3 | 25.7 | 0.00 | 0.00 | 0.00 | 56 | 1016.7 |
| 20260504171006 | 27 | 202 | 14.5 | 25.7 | 0.00 | 0.00 | 0.00 | 56 | 1016.9 |
| 20260504170504 | 27 | 178 | 12.9 | 24.1 | 0.00 | 0.00 | 0.00 | 56 | 1017.0 |